Simultaneous Nadir Overpasses (SNOs) Predictions

Prediction of SNOs between NOAA-19 and TERRA Satellite Orbit:

Table of predicted SNOs for the next 14.0 days since TLE Epoch: 11/18/2011
Index Date Time (NOAA-19) NOAA-19 Lat,Lon TERRA Lat,Lon Distance(km) Time Diff (sec)
1 11/20/2011 09:54:35 -71.17,-152.84 -71.14,-146.47 228.96 52
2 11/20/2011 10:44:55 68.87, 17.99 68.90, 17.97 2.67 38
3 11/20/2011 11:35:54 -68.72,-174.57 -68.72,-174.62 2.30 50
4 11/20/2011 12:26:04 65.82, -3.83 65.85, -10.17 288.32 44
5 11/22/2011 14:39:01 -69.69, 138.35 -69.57, 140.16 71.26 68
6 11/22/2011 15:29:49 68.82, -53.17 68.80, -53.21 2.58 1
7 11/22/2011 16:20:37 -68.11, 115.02 -68.18, 113.66 56.79 70
8 11/24/2011 18:33:32 71.64,-103.39 71.54, -95.55 275.38 46
9 11/24/2011 19:23:40 -68.89, 68.27 -68.90, 68.22 2.45 54
10 11/24/2011 20:14:42 68.73,-124.28 68.73,-124.35 2.86 40
11 11/24/2011 21:05:02 -66.54, 45.69 -66.59, 40.84 214.39 54
12 11/26/2011 23:17:55 70.02,-171.87 69.92,-169.10 106.04 65
13 11/27/2011 00:08:33 -68.85, -2.90 -68.86, -2.88 0.93 14
14 11/27/2011 00:59:30 68.40, 164.94 68.52, 164.34 27.83 72
15 11/27/2011 01:49:18 -64.49, -23.40 -64.45, -32.27 425.16 20
16 11/29/2011 03:12:29 -72.41, -54.57 -72.34, -43.88 359.33 33
17 11/29/2011 04:02:28 68.92, 118.52 68.90, 118.49 2.79 62
18 11/29/2011 04:53:25 -68.79, -74.04 -68.79, -74.01 0.92 25
19 11/29/2011 05:43:56 66.91, 95.57 66.93, 91.46 178.85 58
20 12/01/2011 07:56:48 -70.67,-122.59 -70.58,-117.87 174.30 58
21 12/01/2011 08:47:20 68.85, 47.40 68.86, 47.40 0.62 22
22 12/01/2011 09:38:16 -68.69,-145.13 -68.69,-145.18 2.14 63




NCC Satellite Simultaneous Nadir Overpasses (SNOs) Prediction Service
